| time (UTC) | temp C | wind direction | speed KPH | gust KPH | rain 1hr cm | rain 24hr cm | rain mn cm | humidity % | barometer mb |
| 20260507180503 | 21 | 315 | 22.5 | 30.6 | 0.00 | 0.00 | 0.00 | 30 | 1006.4 |
| 20260507180003 | 21 | 309 | 22.5 | 30.6 | 0.00 | 0.00 | 0.00 | 31 | 1006.4 |
| 20260507175503 | 21 | 313 | 24.1 | 35.4 | 0.00 | 0.00 | 0.00 | 30 | 1006.5 |
| 20260507175217 | 21 | 314 | 24.1 | 35.4 | 0.00 | 0.00 | 0.00 | 32 | 1006.5 |
| 20260507174503 | 21 | 303 | 22.5 | 33.8 | 0.00 | 0.00 | 0.00 | 32 | 1006.5 |
| 20260507174003 | 21 | 298 | 22.5 | 30.6 | 0.00 | 0.00 | 0.00 | 33 | 1006.5 |
| 20260507173503 | 21 | 301 | 20.9 | 29.0 | 0.00 | 0.00 | 0.00 | 34 | 1006.6 |
| 20260507173003 | 21 | 308 | 20.9 | 32.2 | 0.00 | 0.00 | 0.00 | 34 | 1006.9 |
| 20260507172503 | 20 | 308 | 22.5 | 32.2 | 0.00 | 0.00 | 0.00 | 34 | 1007.0 |
| 20260507172432 | 20 | 308 | 22.5 | 32.2 | 0.00 | 0.00 | 0.00 | 34 | 1007.0 |
| 20260507171718 | 20 | 289 | 24.1 | 33.8 | 0.00 | 0.00 | 0.00 | 36 | 1007.1 |
| 20260507171217 | 20 | 292 | 22.5 | 33.8 | 0.00 | 0.00 | 0.00 | 35 | 1007.1 |
| 20260507170503 | 20 | 310 | 22.5 | 32.2 | 0.00 | 0.00 | 0.00 | 34 | 1007.2 |
| 20260507170432 | 20 | 308 | 22.5 | 32.2 | 0.00 | 0.00 | 0.00 | 34 | 1007.2 |
| 20260507165503 | 20 | 308 | 22.5 | 32.2 | 0.00 | 0.00 | 0.00 | 35 | 1007.1 |
| 20260507165003 | 20 | 309 | 24.1 | 35.4 | 0.00 | 0.00 | 0.00 | 35 | 1007.2 |
| 20260507164503 | 20 | 304 | 24.1 | 35.4 | 0.00 | 0.00 | 0.00 | 36 | 1007.2 |
| 20260507164217 | 19 | 298 | 22.5 | 35.4 | 0.00 | 0.00 | 0.00 | 38 | 1007.2 |
| 20260507163933 | 18 | 291 | 22.5 | 35.4 | 0.00 | 0.00 | 0.00 | 39 | 1007.2 |
| 20260507163217 | 18 | 289 | 22.5 | 29.0 | 0.00 | 0.00 | 0.00 | 44 | 1007.3 |
| 20260507162503 | 18 | 286 | 20.9 | 32.2 | 0.00 | 0.00 | 0.00 | 42 | 1007.5 |
| 20260507162003 | 18 | 282 | 20.9 | 37.0 | 0.00 | 0.00 | 0.00 | 42 | 1007.6 |
| 20260507161503 | 18 | 287 | 22.5 | 37.0 | 0.00 | 0.00 | 0.00 | 43 | 1007.7 |
| 20260507161217 | 18 | 282 | 24.1 | 40.2 | 0.00 | 0.00 | 0.00 | 42 | 1007.5 |
| 20260507160503 | 18 | 279 | 24.1 | 40.2 | 0.00 | 0.00 | 0.00 | 43 | 1007.6 |
| 20260507160003 | 17 | 277 | 25.7 | 37.0 | 0.00 | 0.00 | 0.00 | 43 | 1007.5 |
| 20260507155503 | 17 | 269 | 24.1 | 37.0 | 0.00 | 0.00 | 0.00 | 44 | 1007.5 |
| 20260507155003 | 17 | 262 | 24.1 | 32.2 | 0.00 | 0.00 | 0.00 | 44 | 1007.6 |
| 20260507154503 | 17 | 260 | 24.1 | 32.2 | 0.00 | 0.00 | 0.00 | 45 | 1007.6 |
| 20260507154009 | 17 | 265 | 24.1 | 30.6 | 0.00 | 0.00 | 0.00 | 47 | 1007.6 |
| 20260507153504 | 16 | 267 | 25.7 | 33.8 | 0.00 | 0.00 | 0.00 | 45 | 1007.6 |
| 20260507153003 | 16 | 267 | 25.7 | 33.8 | 0.00 | 0.00 | 0.00 | 45 | 1007.7 |
| 20260507152932 | 16 | 267 | 25.7 | 33.8 | 0.00 | 0.00 | 0.00 | 45 | 1007.7 |
| 20260507152003 | 15 | 275 | 29.0 | 38.6 | 0.00 | 0.00 | 0.00 | 45 | 1007.7 |
| 20260507151932 | 15 | 275 | 29.0 | 38.6 | 0.00 | 0.00 | 0.00 | 45 | 1007.7 |
| 20260507151433 | 15 | 276 | 27.4 | 38.6 | 0.00 | 0.00 | 0.00 | 45 | 1007.7 |
| 20260507150503 | 15 | 281 | 24.1 | 37.0 | 0.00 | 0.00 | 0.00 | 47 | 1007.6 |
| 20260507150003 | 15 | 282 | 24.1 | 37.0 | 0.00 | 0.00 | 0.00 | 50 | 1007.7 |
| 20260507145932 | 15 | 281 | 24.1 | 37.0 | 0.00 | 0.00 | 0.00 | 50 | 1007.8 |
| 20260507145003 | 13 | 282 | 24.1 | 33.8 | 0.00 | 0.00 | 0.00 | 52 | 1007.6 |
| 20260507144717 | 13 | 280 | 24.1 | 38.6 | 0.00 | 0.00 | 0.00 | 53 | 1007.8 |
| 20260507144433 | 13 | 276 | 22.5 | 38.6 | 0.00 | 0.00 | 0.00 | 55 | 1007.9 |
| 20260507143717 | 13 | 279 | 20.9 | 29.0 | 0.00 | 0.00 | 0.00 | 58 | 1007.8 |
| 20260507143003 | 12 | 278 | 22.5 | 32.2 | 0.00 | 0.00 | 0.00 | 60 | 1007.8 |
| 20260507142503 | 11 | 277 | 24.1 | 32.2 | 0.00 | 0.00 | 0.00 | 61 | 1007.8 |
| 20260507142003 | 11 | 277 | 25.7 | 37.0 | 0.00 | 0.00 | 0.00 | 64 | 1007.5 |
| 20260507141503 | 10 | 274 | 25.7 | 37.0 | 0.00 | 0.00 | 0.00 | 65 | 1007.6 |
| 20260507141218 | 10 | 272 | 25.7 | 37.0 | 0.00 | 0.00 | 0.00 | 66 | 1007.7 |
| 20260507140503 | 10 | 273 | 24.1 | 33.8 | 0.00 | 0.03 | 0.00 | 68 | 1008.2 |
| 20260507140003 | 9 | 276 | 25.7 | 37.0 | 0.00 | 0.03 | 0.00 | 69 | 1008.2 |
| 20260507135932 | 9 | 276 | 25.7 | 37.0 | 0.00 | 0.03 | 0.00 | 69 | 1008.2 |
| 20260507135003 | 8 | 275 | 24.1 | 37.0 | 0.00 | 0.03 | 0.00 | 72 | 1008.2 |
| 20260507134503 | 8 | 270 | 22.5 | 37.0 | 0.00 | 0.03 | 0.00 | 73 | 1008.1 |
| 20260507134003 | 7 | 272 | 24.1 | 33.8 | 0.00 | 0.05 | 0.00 | 74 | 1008.1 |
| 20260507133503 | 7 | 274 | 22.5 | 33.8 | 0.00 | 0.05 | 0.00 | 75 | 1008.1 |
| 20260507133003 | 7 | 276 | 24.1 | 32.2 | 0.00 | 0.05 | 0.00 | 75 | 1008.0 |
| 20260507132503 | 6 | 276 | 24.1 | 30.6 | 0.00 | 0.08 | 0.00 | 76 | 1008.0 |
| 20260507132433 | 6 | 276 | 24.1 | 30.6 | 0.00 | 0.08 | 0.00 | 76 | 1008.0 |
| 20260507131503 | 6 | 274 | 24.1 | 32.2 | 0.00 | 0.08 | 0.00 | 77 | 1008.0 |
| 20260507131433 | 6 | 274 | 24.1 | 32.2 | 0.00 | 0.08 | 0.00 | 77 | 1008.1 |
| 20260507130503 | 5 | 274 | 24.1 | 37.0 | 0.00 | 0.08 | 0.00 | 78 | 1008.0 |
| 20260507130003 | 5 | 275 | 22.5 | 37.0 | 0.00 | 0.08 | 0.00 | 78 | 1008.0 |
| 20260507125503 | 5 | 276 | 22.5 | 32.2 | 0.00 | 0.10 | 0.00 | 79 | 1007.9 |
| 20260507125003 | 5 | 276 | 24.1 | 35.4 | 0.00 | 0.10 | 0.00 | 79 | 1007.9 |
| 20260507124931 | 5 | 275 | 24.1 | 35.4 | 0.00 | 0.10 | 0.00 | 79 | 1007.9 |
| 20260507124003 | 4 | 270 | 22.5 | 32.2 | 0.00 | 0.10 | 0.00 | 80 | 1007.8 |
| 20260507123503 | 4 | 267 | 22.5 | 32.2 | 0.00 | 0.13 | 0.00 | 80 | 1007.9 |
| 20260507123003 | 3 | 266 | 24.1 | 32.2 | 0.00 | 0.13 | 0.00 | 80 | 1008.0 |
| 20260507122718 | 3 | 266 | 24.1 | 32.2 | 0.00 | 0.13 | 0.00 | 81 | 1008.0 |
| 20260507122004 | 3 | 268 | 24.1 | 32.2 | 0.00 | 0.15 | 0.00 | 81 | 1008.2 |
| 20260507121503 | 3 | 274 | 24.1 | 35.4 | 0.00 | 0.15 | 0.00 | 81 | 1008.2 |
| 20260507121003 | 3 | 275 | 24.1 | 35.4 | 0.00 | 0.15 | 0.00 | 81 | 1008.2 |
| 20260507120503 | 3 | 270 | 24.1 | 32.2 | 0.00 | 0.18 | 0.00 | 81 | 1008.1 |
| 20260507120004 | 3 | 267 | 25.7 | 37.0 | 0.00 | 0.18 | 0.00 | 81 | 1008.1 |
| 20260507115503 | 3 | 265 | 24.1 | 37.0 | 0.00 | 0.18 | 0.00 | 81 | 1008.1 |
| 20260507115003 | 3 | 266 | 24.1 | 32.2 | 0.00 | 0.20 | 0.00 | 81 | 1008.2 |
| 20260507114503 | 3 | 267 | 22.5 | 32.2 | 0.00 | 0.20 | 0.00 | 81 | 1008.4 |
| 20260507114003 | 3 | 264 | 24.1 | 32.2 | 0.00 | 0.20 | 0.00 | 81 | 1008.3 |
| 20260507113503 | 3 | 264 | 24.1 | 37.0 | 0.00 | 0.23 | 0.00 | 81 | 1008.4 |
| 20260507113003 | 3 | 264 | 24.1 | 37.0 | 0.00 | 0.23 | 0.00 | 81 | 1008.5 |
| 20260507112718 | 3 | 264 | 24.1 | 32.2 | 0.00 | 0.23 | 0.00 | 81 | 1008.4 |
| 20260507112003 | 3 | 270 | 24.1 | 33.8 | 0.00 | 0.25 | 0.00 | 81 | 1008.4 |
| 20260507111503 | 3 | 274 | 24.1 | 32.2 | 0.00 | 0.25 | 0.00 | 81 | 1008.4 |
| 20260507111003 | 3 | 276 | 22.5 | 30.6 | 0.00 | 0.28 | 0.00 | 81 | 1008.4 |
| 20260507110503 | 3 | 277 | 22.5 | 29.0 | 0.00 | 0.28 | 0.00 | 81 | 1008.5 |
| 20260507110003 | 3 | 275 | 22.5 | 29.0 | 0.00 | 0.28 | 0.00 | 81 | 1008.5 |
| 20260507105718 | 3 | 274 | 20.9 | 29.0 | 0.00 | 0.28 | 0.00 | 81 | 1008.5 |
| 20260507105003 | 3 | 271 | 22.5 | 29.0 | 0.00 | 0.30 | 0.00 | 81 | 1008.6 |
| 20260507104503 | 3 | 269 | 22.5 | 30.6 | 0.00 | 0.33 | 0.00 | 80 | 1008.9 |
| 20260507104217 | 3 | 270 | 22.5 | 30.6 | 0.00 | 0.33 | 0.00 | 80 | 1008.9 |
| 20260507103503 | 3 | 272 | 22.5 | 30.6 | 0.00 | 0.36 | 0.00 | 80 | 1009.0 |
| 20260507103003 | 3 | 270 | 22.5 | 30.6 | 0.00 | 0.38 | 0.00 | 80 | 1008.9 |
| 20260507102717 | 3 | 269 | 24.1 | 30.6 | 0.00 | 0.38 | 0.00 | 80 | 1008.9 |
| 20260507102003 | 3 | 268 | 22.5 | 30.6 | 0.00 | 0.38 | 0.00 | 81 | 1009.1 |
| 20260507101503 | 3 | 268 | 22.5 | 29.0 | 0.00 | 0.38 | 0.00 | 81 | 1009.2 |
| 20260507101431 | 3 | 268 | 22.5 | 29.0 | 0.00 | 0.38 | 0.00 | 81 | 1009.2 |
| 20260507100717 | 3 | 271 | 24.1 | 32.2 | 0.00 | 0.41 | 0.00 | 81 | 1009.4 |
| 20260507100003 | 3 | 268 | 24.1 | 32.2 | 0.00 | 0.41 | 0.00 | 81 | 1009.3 |
| 20260507095503 | 3 | 267 | 25.7 | 37.0 | 0.00 | 0.41 | 0.00 | 81 | 1009.3 |
| 20260507095003 | 3 | 267 | 25.7 | 37.0 | 0.00 | 0.43 | 0.00 | 81 | 1009.4 |
| 20260507094503 | 3 | 268 | 24.1 | 37.0 | 0.00 | 0.43 | 0.00 | 81 | 1009.4 |
| 20260507094433 | 3 | 268 | 24.1 | 37.0 | 0.00 | 0.43 | 0.00 | 81 | 1009.4 |
| 20260507093503 | 3 | 268 | 25.7 | 38.6 | 0.00 | 0.43 | 0.00 | 81 | 1009.5 |
| 20260507093003 | 3 | 267 | 25.7 | 38.6 | 0.00 | 0.46 | 0.00 | 81 | 1009.6 |
| 20260507092503 | 3 | 263 | 25.7 | 37.0 | 0.00 | 0.46 | 0.00 | 81 | 1009.7 |
| 20260507092003 | 3 | 263 | 25.7 | 37.0 | 0.00 | 0.46 | 0.00 | 81 | 1009.7 |
| 20260507091503 | 3 | 267 | 25.7 | 37.0 | 0.00 | 0.46 | 0.00 | 80 | 1009.7 |
| 20260507091003 | 3 | 270 | 22.5 | 30.6 | 0.00 | 0.46 | 0.00 | 80 | 1009.9 |
| 20260507090503 | 3 | 271 | 22.5 | 30.6 | 0.00 | 0.46 | 0.00 | 80 | 1010.0 |
| 20260507090004 | 3 | 270 | 24.1 | 30.6 | 0.00 | 0.46 | 0.00 | 80 | 1010.0 |
| 20260507085503 | 3 | 270 | 24.1 | 37.0 | 0.00 | 0.46 | 0.00 | 79 | 1010.0 |
| 20260507085003 | 3 | 270 | 24.1 | 37.0 | 0.00 | 0.46 | 0.00 | 79 | 1010.0 |
| 20260507084717 | 2 | 270 | 22.5 | 30.6 | 0.00 | 0.46 | 0.00 | 79 | 1010.0 |
| 20260507084433 | 2 | 270 | 20.9 | 27.4 | 0.00 | 0.46 | 0.00 | 79 | 1010.2 |
| 20260507083503 | 2 | 271 | 22.5 | 30.6 | 0.00 | 0.46 | 0.00 | 80 | 1010.3 |
| 20260507083218 | 2 | 271 | 22.5 | 30.6 | 0.00 | 0.46 | 0.00 | 80 | 1010.2 |
| 20260507082932 | 3 | 271 | 22.5 | 32.2 | 0.00 | 0.46 | 0.00 | 80 | 1010.4 |
| 20260507082003 | 3 | 270 | 24.1 | 32.2 | 0.00 | 0.46 | 0.00 | 79 | 1010.4 |
| 20260507081503 | 3 | 269 | 22.5 | 32.2 | 0.00 | 0.46 | 0.00 | 80 | 1010.5 |
| 20260507081218 | 3 | 269 | 22.5 | 32.2 | 0.00 | 0.46 | 0.00 | 79 | 1010.6 |
| 20260507080503 | 3 | 265 | 19.3 | 27.4 | 0.00 | 0.46 | 0.00 | 79 | 1010.8 |
| 20260507080218 | 3 | 264 | 19.3 | 27.4 | 0.00 | 0.46 | 0.00 | 80 | 1010.8 |
| 20260507075503 | 3 | 261 | 17.7 | 27.4 | 0.00 | 0.46 | 0.00 | 80 | 1010.8 |
| 20260507075003 | 3 | 258 | 19.3 | 25.7 | 0.00 | 0.46 | 0.00 | 80 | 1010.9 |
| 20260507074503 | 3 | 258 | 19.3 | 25.7 | 0.00 | 0.46 | 0.00 | 80 | 1011.0 |
| 20260507074003 | 3 | 259 | 17.7 | 25.7 | 0.00 | 0.46 | 0.00 | 80 | 1011.1 |
| 20260507073503 | 3 | 259 | 17.7 | 25.7 | 0.00 | 0.46 | 0.00 | 79 | 1011.2 |
| 20260507073003 | 3 | 261 | 17.7 | 24.1 | 0.00 | 0.46 | 0.00 | 79 | 1011.3 |
| 20260507072716 | 3 | 262 | 19.3 | 29.0 | 0.00 | 0.46 | 0.00 | 79 | 1011.3 |
| 20260507072003 | 3 | 266 | 20.9 | 29.0 | 0.00 | 0.46 | 0.00 | 78 | 1011.4 |
| 20260507071503 | 3 | 268 | 20.9 | 30.6 | 0.00 | 0.46 | 0.00 | 78 | 1011.4 |
| 20260507071003 | 3 | 270 | 20.9 | 30.6 | 0.00 | 0.46 | 0.00 | 77 | 1011.6 |
| 20260507070933 | 3 | 270 | 20.9 | 30.6 | 0.00 | 0.46 | 0.00 | 77 | 1011.6 |
| 20260507070005 | 3 | 266 | 17.7 | 25.7 | 0.00 | 0.46 | 0.00 | 77 | 1011.7 |
| 20260507065503 | 3 | 259 | 16.1 | 24.1 | 0.00 | 0.46 | 0.00 | 77 | 1011.7 |
| 20260507065217 | 3 | 257 | 16.1 | 24.1 | 0.00 | 0.46 | 0.00 | 77 | 1011.8 |
| 20260507064503 | 3 | 253 | 17.7 | 25.7 | 0.00 | 0.46 | 0.00 | 77 | 1011.8 |
| 20260507064003 | 3 | 258 | 16.1 | 22.5 | 0.00 | 0.46 | 0.00 | 77 | 1011.8 |
| 20260507063503 | 3 | 266 | 17.7 | 24.1 | 0.00 | 0.46 | 0.00 | 77 | 1011.9 |
| 20260507063003 | 3 | 271 | 17.7 | 24.1 | 0.00 | 0.46 | 0.00 | 77 | 1012.0 |
| 20260507062503 | 3 | 271 | 19.3 | 25.7 | 0.00 | 0.46 | 0.00 | 77 | 1012.2 |
| 20260507062432 | 3 | 271 | 19.3 | 25.7 | 0.00 | 0.46 | 0.00 | 77 | 1012.2 |
| 20260507061503 | 3 | 272 | 20.9 | 25.7 | 0.00 | 0.46 | 0.00 | 77 | 1012.3 |
| 20260507061217 | 3 | 272 | 20.9 | 25.7 | 0.00 | 0.46 | 0.00 | 77 | 1012.2 |
| 20260507060718 | 3 | 272 | 20.9 | 25.7 | 0.00 | 0.46 | 0.00 | 77 | 1012.4 |
| 20260507060003 | 3 | 272 | 19.3 | 25.7 | 0.00 | 0.46 | 0.00 | 77 | 1012.3 |
| 20260507055503 | 3 | 271 | 19.3 | 25.7 | 0.00 | 0.46 | 0.00 | 78 | 1012.3 |
| 20260507055003 | 3 | 270 | 17.7 | 25.7 | 0.00 | 0.46 | 0.00 | 78 | 1012.3 |
| 20260507054503 | 3 | 267 | 17.7 | 22.5 | 0.00 | 0.46 | 0.00 | 78 | 1012.3 |
| 20260507054432 | 3 | 267 | 17.7 | 22.5 | 0.00 | 0.46 | 0.00 | 78 | 1012.3 |
| 20260507053933 | 4 | 259 | 16.1 | 20.9 | 0.00 | 0.46 | 0.00 | 78 | 1012.4 |
| 20260507053003 | 4 | 251 | 17.7 | 24.1 | 0.00 | 0.46 | 0.00 | 77 | 1012.4 |
| 20260507052933 | 4 | 251 | 17.7 | 24.1 | 0.00 | 0.46 | 0.00 | 78 | 1012.4 |
| 20260507052003 | 4 | 245 | 17.7 | 24.1 | 0.00 | 0.46 | 0.00 | 78 | 1012.3 |
| 20260507051503 | 4 | 247 | 16.1 | 22.5 | 0.00 | 0.46 | 0.00 | 78 | 1012.4 |
| 20260507051003 | 4 | 251 | 16.1 | 22.5 | 0.00 | 0.46 | 0.00 | 78 | 1012.5 |
| 20260507050503 | 4 | 253 | 17.7 | 22.5 | 0.00 | 0.46 | 0.00 | 78 | 1012.5 |
| 20260507050003 | 4 | 255 | 16.1 | 22.5 | 0.00 | 0.46 | 0.00 | 77 | 1012.6 |
| 20260507045503 | 4 | 255 | 16.1 | 20.9 | 0.00 | 0.46 | 0.46 | 77 | 1012.7 |
| 20260507045216 | 4 | 253 | 16.1 | 20.9 | 0.00 | 0.46 | 0.46 | 78 | 1012.7 |
| 20260507044503 | 4 | 246 | 19.3 | 22.5 | 0.00 | 0.46 | 0.46 | 78 | 1012.8 |
| 20260507044431 | 4 | 245 | 19.3 | 22.5 | 0.00 | 0.46 | 0.46 | 78 | 1012.8 |
| 20260507043932 | 4 | 241 | 17.7 | 22.5 | 0.00 | 0.46 | 0.46 | 78 | 1012.8 |
| 20260507043003 | 4 | 238 | 16.1 | 22.5 | 0.00 | 0.46 | 0.46 | 79 | 1012.9 |
| 20260507042717 | 4 | 237 | 16.1 | 22.5 | 0.00 | 0.46 | 0.46 | 79 | 1013.0 |
| 20260507042003 | 4 | 235 | 12.9 | 19.3 | 0.00 | 0.46 | 0.46 | 80 | 1013.0 |
| 20260507041932 | 4 | 236 | 12.9 | 19.3 | 0.00 | 0.46 | 0.46 | 80 | 1013.0 |
| 20260507041218 | 5 | 242 | 14.5 | 19.3 | 0.00 | 0.46 | 0.46 | 80 | 1013.0 |
| 20260507040503 | 5 | 243 | 14.5 | 17.7 | 0.00 | 0.46 | 0.46 | 80 | 1012.9 |
| 20260507040218 | 5 | 244 | 14.5 | 19.3 | 0.00 | 0.46 | 0.46 | 79 | 1013.0 |
| 20260507035503 | 5 | 246 | 12.9 | 19.3 | 0.00 | 0.46 | 0.46 | 79 | 1013.0 |
| 20260507035003 | 5 | 243 | 12.9 | 16.1 | 0.00 | 0.46 | 0.46 | 80 | 1013.0 |
| 20260507034932 | 5 | 242 | 12.9 | 16.1 | 0.00 | 0.46 | 0.46 | 80 | 1013.0 |
| 20260507034433 | 5 | 237 | 12.9 | 17.7 | 0.00 | 0.46 | 0.46 | 80 | 1013.0 |
| 20260507033503 | 5 | 236 | 14.5 | 17.7 | 0.00 | 0.46 | 0.46 | 80 | 1013.0 |
| 20260507033003 | 5 | 238 | 12.9 | 17.7 | 0.00 | 0.46 | 0.46 | 80 | 1013.0 |
| 20260507032503 | 5 | 241 | 12.9 | 16.1 | 0.00 | 0.46 | 0.46 | 80 | 1013.0 |
| 20260507032003 | 5 | 246 | 12.9 | 16.1 | 0.00 | 0.46 | 0.46 | 80 | 1013.0 |
| 20260507031503 | 5 | 249 | 12.9 | 17.7 | 0.00 | 0.46 | 0.46 | 80 | 1013.0 |
| 20260507031003 | 5 | 246 | 12.9 | 17.7 | 0.00 | 0.46 | 0.46 | 80 | 1013.0 |
| 20260507030503 | 5 | 239 | 12.9 | 17.7 | 0.00 | 0.46 | 0.46 | 81 | 1013.0 |
| 20260507030433 | 5 | 239 | 12.9 | 17.7 | 0.00 | 0.46 | 0.46 | 81 | 1013.0 |
| 20260507025717 | 5 | 235 | 12.9 | 17.7 | 0.00 | 0.46 | 0.46 | 80 | 1013.0 |
| 20260507025003 | 5 | 241 | 12.9 | 17.7 | 0.00 | 0.46 | 0.46 | 81 | 1013.0 |
| 20260507024717 | 5 | 243 | 12.9 | 17.7 | 0.00 | 0.46 | 0.46 | 81 | 1013.0 |
| 20260507024003 | 5 | 244 | 11.3 | 16.1 | 0.00 | 0.46 | 0.46 | 81 | 1012.8 |
| 20260507023716 | 5 | 242 | 11.3 | 16.1 | 0.00 | 0.46 | 0.46 | 80 | 1012.8 |
| 20260507023003 | 6 | 240 | 9.7 | 12.9 | 0.00 | 0.46 | 0.46 | 80 | 1012.9 |
| 20260507022716 | 6 | 242 | 9.7 | 12.9 | 0.00 | 0.46 | 0.46 | 80 | 1012.8 |
| 20260507022433 | 6 | 248 | 9.7 | 14.5 | 0.00 | 0.46 | 0.46 | 80 | 1012.8 |
| 20260507021503 | 6 | 252 | 11.3 | 14.5 | 0.00 | 0.46 | 0.46 | 80 | 1012.8 |
| 20260507021003 | 6 | 255 | 11.3 | 14.5 | 0.00 | 0.46 | 0.46 | 80 | 1012.8 |
| 20260507020503 | 6 | 260 | 11.3 | 14.5 | 0.00 | 0.46 | 0.46 | 79 | 1012.8 |
| 20260507020003 | 6 | 264 | 11.3 | 17.7 | 0.00 | 0.46 | 0.46 | 79 | 1012.8 |
| 20260507015933 | 6 | 263 | 11.3 | 17.7 | 0.00 | 0.46 | 0.46 | 79 | 1012.8 |
| 20260507015003 | 7 | 269 | 12.9 | 17.7 | 0.00 | 0.46 | 0.46 | 78 | 1012.7 |
| 20260507014503 | 7 | 273 | 11.3 | 17.7 | 0.00 | 0.46 | 0.46 | 77 | 1012.8 |
| 20260507014003 | 7 | 273 | 12.9 | 17.7 | 0.00 | 0.46 | 0.46 | 77 | 1012.8 |
| 20260507013503 | 7 | 273 | 12.9 | 17.7 | 0.00 | 0.46 | 0.46 | 77 | 1012.8 |
| 20260507013003 | 7 | 275 | 12.9 | 17.7 | 0.00 | 0.46 | 0.46 | 77 | 1012.7 |
| 20260507012718 | 7 | 275 | 12.9 | 17.7 | 0.00 | 0.46 | 0.46 | 77 | 1012.7 |
| 20260507012003 | 7 | 276 | 12.9 | 17.7 | 0.00 | 0.46 | 0.46 | 76 | 1012.8 |
| 20260507011933 | 7 | 277 | 12.9 | 17.7 | 0.00 | 0.46 | 0.46 | 76 | 1012.8 |
| 20260507011003 | 7 | 276 | 16.1 | 19.3 | 0.00 | 0.46 | 0.46 | 77 | 1012.8 |
| 20260507010933 | 7 | 276 | 16.1 | 19.3 | 0.00 | 0.46 | 0.46 | 77 | 1012.8 |
| 20260507010003 | 7 | 277 | 16.1 | 20.9 | 0.00 | 0.46 | 0.46 | 76 | 1012.7 |
| 20260507005503 | 7 | 274 | 17.7 | 20.9 | 0.00 | 0.46 | 0.46 | 76 | 1012.6 |
| 20260507005003 | 7 | 272 | 17.7 | 22.5 | 0.00 | 0.46 | 0.46 | 76 | 1012.6 |
| 20260507004718 | 7 | 273 | 17.7 | 22.5 | 0.00 | 0.46 | 0.46 | 76 | 1012.5 |
| 20260507004003 | 7 | 276 | 16.1 | 22.5 | 0.00 | 0.46 | 0.46 | 77 | 1012.5 |
| 20260507003503 | 8 | 279 | 14.5 | 20.9 | 0.00 | 0.46 | 0.46 | 77 | 1012.5 |
| 20260507003432 | 8 | 279 | 14.5 | 20.9 | 0.00 | 0.46 | 0.46 | 77 | 1012.5 |
| 20260507002718 | 8 | 277 | 12.9 | 17.7 | 0.00 | 0.46 | 0.46 | 78 | 1012.6 |
| 20260507002003 | 7 | 289 | 14.5 | 19.3 | 0.00 | 0.46 | 0.46 | 78 | 1012.8 |
| 20260507001503 | 7 | 293 | 14.5 | 20.9 | 0.00 | 0.46 | 0.46 | 78 | 1012.8 |
| 20260507001432 | 7 | 293 | 14.5 | 20.9 | 0.00 | 0.46 | 0.46 | 78 | 1012.8 |
| 20260507000503 | 7 | 296 | 12.9 | 19.3 | 0.00 | 0.46 | 0.46 | 79 | 1012.7 |
| 20260507000003 | 7 | 297 | 16.1 | 19.3 | 0.00 | 0.46 | 0.46 | 78 | 1012.8 |
| 20260506235503 | 7 | 280 | 16.1 | 24.1 | 0.00 | 0.46 | 0.46 | 77 | 1012.8 |
| 20260506235216 | 7 | 274 | 16.1 | 25.7 | 0.00 | 0.46 | 0.46 | 77 | 1012.8 |
| 20260506234503 | 7 | 281 | 19.3 | 25.7 | 0.00 | 0.48 | 0.46 | 76 | 1012.7 |
| 20260506234216 | 7 | 286 | 19.3 | 25.7 | 0.00 | 0.48 | 0.46 | 76 | 1012.7 |
| 20260506233503 | 7 | 293 | 19.3 | 25.7 | 0.00 | 0.48 | 0.46 | 75 | 1012.7 |
| 20260506233003 | 8 | 288 | 17.7 | 25.7 | 0.00 | 0.48 | 0.46 | 75 | 1012.7 |
| 20260506232933 | 8 | 287 | 17.7 | 25.7 | 0.00 | 0.48 | 0.46 | 76 | 1012.7 |
| 20260506232433 | 8 | 275 | 17.7 | 25.7 | 0.00 | 0.48 | 0.46 | 76 | 1012.7 |
| 20260506231503 | 8 | 277 | 20.9 | 29.0 | 0.00 | 0.48 | 0.46 | 76 | 1012.7 |
| 20260506231003 | 8 | 276 | 20.9 | 29.0 | 0.00 | 0.48 | 0.46 | 75 | 1012.8 |
| 20260506230503 | 8 | 281 | 17.7 | 25.7 | 0.00 | 0.48 | 0.46 | 75 | 1012.7 |
| 20260506230003 | 8 | 275 | 19.3 | 29.0 | 0.00 | 0.48 | 0.46 | 75 | 1012.7 |
| 20260506225717 | 8 | 271 | 19.3 | 29.0 | 0.00 | 0.48 | 0.46 | 74 | 1012.7 |
| 20260506225003 | 8 | 279 | 19.3 | 27.4 | 0.00 | 0.48 | 0.46 | 74 | 1012.7 |
| 20260506224932 | 8 | 279 | 19.3 | 27.4 | 0.00 | 0.48 | 0.46 | 74 | 1012.7 |
| 20260506224003 | 8 | 274 | 19.3 | 27.4 | 0.00 | 0.48 | 0.46 | 74 | 1012.7 |
| 20260506223717 | 8 | 277 | 20.9 | 27.4 | 0.00 | 0.48 | 0.46 | 74 | 1012.7 |
| 20260506223003 | 8 | 285 | 22.5 | 30.6 | 0.00 | 0.48 | 0.46 | 74 | 1012.7 |
| 20260506222932 | 8 | 285 | 22.5 | 30.6 | 0.00 | 0.48 | 0.46 | 74 | 1012.7 |
| 20260506222003 | 8 | 267 | 20.9 | 30.6 | 0.00 | 0.48 | 0.46 | 75 | 1012.6 |
| 20260506221504 | 8 | 265 | 16.1 | 29.0 | 0.00 | 0.48 | 0.46 | 74 | 1012.8 |
| 20260506221003 | 8 | 275 | 12.9 | 20.9 | 0.00 | 0.48 | 0.46 | 71 | 1012.7 |
| 20260506220503 | 9 | 281 | 12.9 | 19.3 | 0.00 | 0.48 | 0.46 | 71 | 1012.7 |
| 20260506220003 | 9 | 285 | 12.9 | 19.3 | 0.00 | 0.48 | 0.46 | 69 | 1012.7 |
| 20260506215503 | 9 | 294 | 12.9 | 17.7 | 0.00 | 0.48 | 0.46 | 71 | 1012.7 |
| 20260506215003 | 9 | 298 | 12.9 | 17.7 | 0.00 | 0.51 | 0.46 | 70 | 1012.9 |
| 20260506214503 | 9 | 282 | 9.7 | 16.1 | 0.00 | 0.51 | 0.46 | 69 | 1012.9 |
| 20260506214218 | 9 | 276 | 9.7 | 16.1 | 0.00 | 0.51 | 0.46 | 71 | 1012.9 |
| 20260506213503 | 9 | 287 | 9.7 | 17.7 | 0.00 | 0.51 | 0.46 | 72 | 1012.9 |
| 20260506213003 | 9 | 280 | 11.3 | 19.3 | 0.00 | 0.51 | 0.46 | 73 | 1013.1 |
| 20260506212932 | 9 | 282 | 11.3 | 19.3 | 0.00 | 0.51 | 0.46 | 72 | 1013.1 |
| 20260506212003 | 8 | 282 | 11.3 | 19.3 | 0.00 | 0.51 | 0.46 | 73 | 1013.1 |
| 20260506211717 | 8 | 276 | 11.3 | 19.3 | 0.00 | 0.51 | 0.46 | 74 | 1013.2 |
| 20260506211433 | 8 | 265 | 11.3 | 19.3 | 0.00 | 0.51 | 0.46 | 74 | 1013.3 |
| 20260506210503 | 8 | 269 | 11.3 | 17.7 | 0.00 | 0.51 | 0.46 | 73 | 1013.3 |
| 20260506210003 | 8 | 260 | 11.3 | 17.7 | 0.00 | 0.51 | 0.46 | 73 | 1013.3 |
| 20260506205503 | 8 | 257 | 9.7 | 19.3 | 0.00 | 0.53 | 0.46 | 74 | 1013.4 |
| 20260506205003 | 8 | 275 | 9.7 | 19.3 | 0.00 | 0.53 | 0.46 | 74 | 1013.4 |
| 20260506204503 | 8 | 288 | 8.0 | 16.1 | 0.00 | 0.53 | 0.46 | 74 | 1013.5 |
| 20260506204432 | 8 | 288 | 8.0 | 16.1 | 0.00 | 0.53 | 0.46 | 74 | 1013.5 |
| 20260506203503 | 8 | 297 | 6.4 | 11.3 | 0.00 | 0.53 | 0.46 | 76 | 1013.6 |
| 20260506203003 | 8 | 290 | 6.4 | 11.3 | 0.00 | 0.53 | 0.46 | 77 | 1013.6 |
| 20260506202933 | 8 | 287 | 6.4 | 11.3 | 0.00 | 0.53 | 0.46 | 77 | 1013.6 |
| 20260506202003 | 7 | 277 | 6.4 | 11.3 | 0.00 | 0.53 | 0.46 | 78 | 1013.7 |
| 20260506201503 | 7 | 296 | 6.4 | 11.3 | 0.00 | 0.53 | 0.46 | 79 | 1013.7 |
| 20260506201432 | 7 | 297 | 6.4 | 11.3 | 0.00 | 0.53 | 0.46 | 79 | 1013.7 |
| 20260506200503 | 7 | 302 | 6.4 | 11.3 | 0.00 | 0.53 | 0.46 | 79 | 1013.6 |
| 20260506200003 | 7 | 315 | 6.4 | 11.3 | 0.00 | 0.53 | 0.46 | 79 | 1013.7 |
| 20260506195503 | 7 | 306 | 4.8 | 11.3 | 0.00 | 0.53 | 0.46 | 79 | 1013.7 |
| 20260506195003 | 7 | 304 | 4.8 | 8.0 | 0.00 | 0.53 | 0.46 | 79 | 1013.9 |
| 20260506194933 | 7 | 304 | 4.8 | 8.0 | 0.00 | 0.53 | 0.46 | 79 | 1013.9 |
| 20260506194003 | 7 | 335 | 3.2 | 8.0 | 0.00 | 0.53 | 0.46 | 78 | 1013.9 |
| 20260506193503 | 7 | 12 | 1.6 | 6.4 | 0.00 | 0.53 | 0.46 | 78 | 1014.0 |
| 20260506193432 | 7 | 12 | 1.6 | 6.4 | 0.00 | 0.53 | 0.46 | 78 | 1013.9 |
| 20260506192718 | 7 | 12 | 1.6 | 6.4 | 0.00 | 0.53 | 0.46 | 78 | 1014.0 |
| 20260506192003 | 7 | 16 | 3.2 | 8.0 | 0.00 | 0.53 | 0.46 | 79 | 1014.0 |
| 20260506191503 | 7 | 29 | 4.8 | 8.0 | 0.00 | 0.53 | 0.46 | 79 | 1014.0 |
| 20260506191432 | 7 | 28 | 4.8 | 8.0 | 0.00 | 0.53 | 0.46 | 80 | 1014.0 |
| 20260506190503 | 6 | 360 | 1.6 | 6.4 | 0.00 | 0.53 | 0.46 | 80 | 1014.0 |
| 20260506190003 | 6 | 360 | 3.2 | 6.4 | 0.00 | 0.53 | 0.46 | 80 | 1014.1 |
| 20260506185718 | 6 | 360 | 3.2 | 6.4 | 0.00 | 0.53 | 0.46 | 81 | 1014.1 |
| 20260506185003 | 6 | 360 | 3.2 | 9.7 | 0.00 | 0.53 | 0.46 | 81 | 1014.2 |
| 20260506184503 | 6 | 360 | 3.2 | 9.7 | 0.00 | 0.53 | 0.46 | 81 | 1014.2 |
| 20260506184432 | 6 | 360 | 3.2 | 9.7 | 0.00 | 0.53 | 0.46 | 81 | 1014.2 |
| 20260506183503 | 6 | 80 | 1.6 | 4.8 | 0.00 | 0.53 | 0.46 | 81 | 1014.3 |
| 20260506183003 | 6 | 80 | 1.6 | 4.8 | 0.00 | 0.56 | 0.46 | 81 | 1014.2 |
| 20260506182503 | 6 | 80 | 1.6 | 6.4 | 0.00 | 0.56 | 0.46 | 80 | 1014.2 |
| 20260506182003 | 6 | 80 | 3.2 | 6.4 | 0.00 | 0.56 | 0.46 | 80 | 1014.3 |
| 20260506181503 | 6 | 100 | 3.2 | 8.0 | 0.00 | 0.56 | 0.46 | 79 | 1014.3 |
| 20260506181218 | 6 | 115 | 4.8 | 9.7 | 0.00 | 0.56 | 0.46 | 79 | 1014.3 |